Miscellaneous Local Product
Issued by NWS Hastings, NE

Home | Current Version | Previous Version | Text Only | Print | Product List | Glossary On
Versions: 1 2 3 4 5 6 7 8 9 10 11 12 13 14 15 16 17 18 19 20 21 22 23 24 25 26 27 28 29 30 31 32 33 34 35 36 37 38 39 40 41 42 43 44 45 46 47 48 49 50
000
AXUS43 KGID 181510
MISGRI

GID CWA HOURLY WEATHER ROUNDUP
NATIONAL WEATHER SERVICE HASTINGS NE
1000 AM CDT THU SEP 18 2014

NOTE: "FAIR" INDICATES FEW OR NO CLOUDS BELOW 12,000 FEET WITH NO
SIGNIFICANT WEATHER AND/OR OBSTRUCTIONS TO VISIBILITY.

...SOUTH CENTRAL NEBRASKA...

CITY           SKY/WX    TMP DP  RH WIND       PRES   REMARKS
GRAND ISLAND   MOSUNNY   65  60  84 SE12      30.01
HASTINGS       MOSUNNY   65  58  78 SE18      30.00
KEARNEY        PTSUNNY   64  61  88 SE14G23   30.00
ORD            CLOUDY    63  60  90 SE13      30.00
YORK           PTSUNNY   64  63  94 SE12      30.01
AURORA         PTSUNNY   63  63 100 SE10      30.01
LEXINGTON      CLOUDY    64  61  91 SE9       30.00  FOG
HOLDREGE       CLOUDY    63  59  87 SE14G21   29.99  FOG
HEBRON         CLOUDY    65  60  84 SE13      30.01

...NEBRASKA PANHANDLE...

CITY           SKY/WX    TMP DP  RH WIND       PRES   REMARKS
CHADRON        SUNNY     60  54  80 SW3       29.91
ALLIANCE       PTSUNNY   65  59  81 S14       29.97
SCOTTSBLUFF    FOG       56  56 100 CALM      29.97  VSB 3/4
SIDNEY         CLOUDY    58  56  93 S7        30.02  FOG

...WESTERN AND NORTH CENTRAL NEBRASKA...

CITY           SKY/WX    TMP DP  RH WIND       PRES   REMARKS
VALENTINE      SUNNY     67  59  75 S14G21    29.94
AINSWORTH      SUNNY     64  59  83 S16G24    29.97
ONEILL         CLOUDY    64  64  98 S10G16    30.00  FOG
BROKEN BOW     MOSUNNY   65  61  87 S12G22    29.99
IMPERIAL       CLOUDY    63  62  97 SE9       29.99  FOG
NORTH PLATTE   CLOUDY    60  59  96 SE6       29.99  FOG
MCCOOK         FOG       62  61  96 SE12      29.99  VSB 1

...EASTERN NEBRASKA...

CITY           SKY/WX    TMP DP  RH WIND       PRES   REMARKS
NORFOLK        PTSUNNY   66  62  87 S13       30.02R
SO SIOUX CITY  MOSUNNY   65  60  84 SE9       30.03
TEKAMAH        CLOUDY    61  58  90 SE12      30.04
ALBION         CLOUDY    62  60  94 S9        30.02  FOG
OMAHA EPPLEY   PTSUNNY   65  59  81 SE12      30.04
OFFUTT AFB     MOSUNNY   66  65  97 E10       30.03
MILLARD        CLOUDY    65  60  82 SE12      30.03
LINCOLN        PTSUNNY   67  61  81 SE12      30.03
NEBRASKA CITY  PTSUNNY   64  61  88 SE7       30.02
BEATRICE       SUNNY     67  62  83 SE9       30.00
FALLS CITY     CLOUDY    62  61  96 E8        30.02  FOG

...NORTHERN KANSAS...

CITY           SKY/WX    TMP DP  RH WIND       PRES   REMARKS
GOODLAND       CLOUDY    65  62  90 S6        30.00
HILL CITY      CLOUDY    63  62  97 E9        29.97  FOG
NORTON         CLOUDY    61  57  88 E12G17    29.97  FOG
PHILLIPSBURG   CLOUDY    64  64 100 E14       29.98  FOG
SMITH CENTER   CLOUDY    64  63  94 E15       29.98  FOG
BELOIT         CLOUDY    66  64  94 E10G17    29.97
HAYS           CLOUDY    64  61  88 E12       29.96
RUSSELL        CLOUDY    64  63  96 E10       29.95  FOG
CONCORDIA      CLOUDY    65  64  97 SE16G22   29.99S FOG
SALINA         CLOUDY    69  64  84 E13       29.97
TOPEKA         CLOUDY    66  63  90 E9        30.01  FOG



USA.gov is the U.S. government's official web portal to all federal, state and local government web resources and services.